period_start,C,m1,H,J0,J1,J2,J3,J4,J5,JA,JB,JC,JD,JJ,JK,JN,#
2018-10-20 00:00:41,0.00,0.00,0.00,21.34,26.00,27.81,-0.02,0.48,1014.69,2030.94,3607.03,3090.21,3553.05,0.00,0.00,0.00,0000 0000 0000 A000 020008
2018-10-20 00:05:42,0.00,0.00,0.00,21.35,25.98,27.86,-0.02,0.43,1014.69,2030.98,3607.12,3090.65,3553.27,0.00,0.00,0.00,0000 0000 0000 A000 020008
2018-10-20 00:10:43,0.00,0.00,0.00,21.37,25.97,27.85,-0.02,0.49,1014.69,2030.96,3607.19,3090.74,3553.41,0.00,0.00,0.00,0000 0000 0000 A000 020008
2018-10-20 00:15:44,0.00,0.00,0.00,21.39,25.97,27.84,-0.03,0.48,1014.68,2030.96,3607.59,3090.91,3553.76,0.00,0.00,0.00,0000 0000 0000 A000 020008
2018-10-20 00:20:45,0.00,0.00,0.00,21.39,25.96,27.90,-0.02,0.42,1014.69,2030.98,3607.83,3090.98,3553.92,0.00,0.00,0.00,0000 0000 0000 A000 020008
2018-10-20 00:25:46,0.00,0.00,0.00,21.38,25.95,27.88,-0.03,0.42,1014.76,2030.99,3607.90,3090.98,3553.94,0.00,0.00,0.00,0000 0000 0000 A000 020008
2018-10-20 00:30:48,0.00,0.00,0.00,21.37,25.95,27.86,-0.03,0.34,1014.83,2030.99,3607.96,3090.99,3553.97,0.00,0.00,0.00,0000 0000 0000 A000 020008
2018-10-20 00:35:49,0.00,0.00,0.00,21.37,25.95,27.81,-0.02,0.30,1015.03,2030.99,3607.97,3090.98,3553.99,0.00,0.00,0.00,0000 0000 0000 A000 020008
2018-10-20 00:40:50,0.00,0.00,0.00,21.36,25.94,27.82,-0.02,0.28,1015.09,2030.99,3607.98,3090.99,3553.99,0.00,0.00,0.00,0000 0000 0000 A000 020008
2018-10-20 00:45:51,0.00,0.00,0.00,21.37,25.92,27.88,-0.03,0.25,1015.08,2030.99,3607.97,3090.99,3553.99,0.00,0.00,0.00,0000 0000 0000 A000 020008
2018-10-20 00:50:52,0.00,0.00,0.00,21.37,25.92,27.87,-0.03,0.27,1014.78,2030.99,3607.97,3090.99,3553.99,0.00,0.00,0.00,0000 0000 0000 A000 020008
2018-10-20 00:55:53,0.00,0.00,0.00,21.39,25.92,27.86,-0.02,0.28,1014.81,2030.99,3607.95,3090.99,3553.98,0.00,0.00,0.00,0000 0000 0000 A000 020008
2018-10-20 01:00:55,0.00,0.00,0.00,21.40,25.92,27.88,-0.03,0.25,1014.99,2030.99,3607.96,3090.99,3553.99,0.00,0.00,0.00,0000 0000 0000 A000 020008
2018-10-20 01:05:56,0.00,0.00,0.00,21.41,25.92,27.90,-0.02,0.25,1015.10,2030.99,3607.98,3090.99,3553.99,0.00,0.00,0.00,0000 0000 0000 A000 020008
2018-10-20 01:10:57,0.00,0.00,0.00,21.43,25.92,27.92,-0.03,0.28,1015.13,2030.99,3607.98,3090.99,3553.99,0.00,0.00,0.00,0000 0000 0000 A000 020008
2018-10-20 01:15:58,0.00,0.00,0.00,21.46,25.92,27.94,-0.02,0.33,1015.15,2030.99,3607.97,3090.99,3553.99,0.00,0.00,0.00,0000 0000 0000 A000 020008
2018-10-20 01:20:59,0.00,0.00,0.00,21.49,25.92,27.97,-0.03,0.28,1015.15,2030.99,3607.97,3090.99,3553.99,0.00,0.00,0.00,0000 0000 0000 A000 020008
2018-10-20 01:26:01,0.00,0.00,0.00,21.49,25.93,28.01,-0.03,0.33,1015.15,2030.99,3607.98,3090.99,3553.99,0.00,0.00,0.00,0000 0000 0000 A000 020008
2018-10-20 01:31:02,0.00,0.00,0.00,21.52,25.94,28.00,-0.03,0.38,1015.15,2030.99,3607.99,3090.99,3553.99,0.00,0.00,0.00,0000 0000 0000 A000 020008
2018-10-20 01:36:03,0.00,0.00,0.00,21.52,25.95,28.04,-0.02,0.37,1015.15,2030.99,3607.99,3090.99,3553.99,0.00,0.00,0.00,0000 0000 0000 A000 020008
2018-10-20 01:41:04,0.00,0.00,0.00,21.54,25.95,28.04,-0.03,0.39,1015.15,2030.99,3607.97,3090.99,3553.99,0.00,0.00,0.00,0000 0000 0000 A000 020008
2018-10-20 01:46:05,0.00,0.00,0.00,21.55,25.95,28.06,-0.02,0.31,1015.15,2030.99,3607.98,3090.99,3553.99,0.00,0.00,0.00,0000 0000 0000 A000 020008
2018-10-20 01:51:06,0.00,0.00,0.00,21.57,25.95,28.06,-0.02,0.32,1015.15,2030.99,3607.99,3090.99,3553.99,0.00,0.00,0.00,0000 0000 0000 A000 020008
2018-10-20 01:56:08,0.00,0.00,0.00,21.59,25.97,28.05,-0.02,0.43,1015.14,2030.99,3607.97,3090.98,3553.98,0.00,0.00,0.00,0000 0000 0000 A000 020008
2018-10-20 02:01:09,0.00,0.00,0.00,21.59,25.97,28.11,-0.03,0.46,1015.14,2030.99,3607.98,3090.98,3553.97,0.00,0.00,0.00,0000 0000 0000 A000 020008
2018-10-20 02:06:10,0.00,0.00,0.00,21.60,25.97,28.09,-0.03,0.47,1015.06,2030.99,3607.91,3090.97,3553.97,0.00,0.00,0.00,0000 0000 0000 A000 020008
2018-10-20 02:11:11,0.00,0.00,0.00,21.60,25.98,28.09,-0.04,0.47,1014.77,2030.99,3607.85,3090.97,3553.96,0.00,0.00,0.00,0000 0000 0000 A000 020008
2018-10-20 02:16:12,0.00,0.00,0.00,21.62,26.00,28.06,-0.02,0.47,1014.71,2030.98,3607.57,3090.96,3553.85,0.00,0.00,0.00,0000 0000 0000 A000 020008
2018-10-20 02:21:14,0.00,0.00,0.00,21.63,26.00,28.09,-0.02,0.50,1014.71,2030.99,3607.45,3090.93,3553.83,0.00,0.00,0.00,0000 0000 0000 A000 020008
2018-10-20 02:26:15,0.00,0.00,0.00,21.64,26.00,28.12,-0.01,0.50,1014.69,2030.98,3607.35,3090.84,3553.65,0.00,0.00,0.00,0000 0000 0000 A000 020008
2018-10-20 02:31:16,0.00,0.00,0.00,21.63,26.00,28.11,-0.02,0.50,1014.68,2030.97,3607.18,3090.72,3553.31,0.00,0.00,0.00,0000 0000 0000 A000 020008
2018-10-20 02:36:17,0.00,0.00,0.00,21.65,26.02,28.12,-0.02,0.50,1014.67,2030.96,3607.06,3090.48,3553.13,0.00,0.00,0.00,0000 0000 0000 A000 020008
2018-10-20 02:41:18,0.00,0.00,0.00,21.67,26.02,28.13,-0.02,0.52,1014.67,2030.96,3607.03,3090.27,3553.09,0.00,0.00,0.00,0000 0000 0000 A000 020008
2018-10-20 02:46:19,0.00,0.00,0.00,21.67,26.02,28.09,-0.02,0.57,1014.66,2030.92,3607.03,3090.14,3553.05,0.00,0.00,0.00,0000 0000 0000 A000 020008
2018-10-20 02:51:21,0.00,0.00,0.00,21.67,26.02,28.14,-0.02,0.63,1014.64,2030.94,3607.04,3090.24,3553.06,0.00,0.00,0.00,0000 0000 0000 A000 020008
2018-10-20 02:56:22,0.00,0.00,0.00,21.67,26.02,28.14,-0.02,0.71,1014.50,2030.95,3607.05,3090.19,3553.06,0.00,0.00,0.00,0000 0000 0000 A000 020008
2018-10-20 03:01:24,0.00,0.00,0.00,21.67,26.02,28.14,-0.02,0.82,1014.25,2030.94,3607.05,3090.25,3553.03,0.00,0.00,0.00,0000 0000 0000 A000 020008
2018-10-20 03:06:24,0.00,0.00,0.00,21.65,26.03,28.14,-0.03,0.82,1014.19,2030.96,3607.07,3090.30,3553.05,0.00,0.00,0.00,0000 0000 0000 A000 020008
2018-10-20 03:11:25,0.00,0.00,0.00,21.63,26.04,28.14,-0.03,0.81,1014.26,2030.96,3607.26,3090.57,3553.14,0.00,0.00,0.00,0000 0000 0000 A000 020008
2018-10-20 03:16:27,0.00,0.00,0.00,21.61,26.04,28.08,-0.02,0.80,1014.44,2030.95,3607.10,3090.32,3553.05,0.00,0.00,0.00,0000 0000 0000 A000 020008
2018-10-20 03:21:28,0.00,0.00,0.00,21.59,26.03,28.09,-0.03,0.79,1014.62,2030.86,3607.03,3090.13,3553.01,0.00,0.00,0.00,0000 0000 0000 A000 020008
2018-10-20 03:26:29,0.00,0.00,0.00,21.57,26.02,28.10,-0.02,0.68,1014.66,2030.90,3607.06,3090.17,3553.03,0.00,0.00,0.00,0000 0000 0000 A000 020008
2018-10-20 03:31:30,0.00,0.00,0.00,21.54,26.02,28.13,-0.03,0.70,1014.67,2030.84,3607.04,3090.08,3553.02,0.00,0.00,0.00,0000 0000 0000 A000 020008
2018-10-20 03:36:32,0.00,0.00,0.00,21.52,26.02,28.04,-0.03,0.68,1014.72,2030.85,3607.04,3090.11,3553.03,0.00,0.00,0.00,0000 0000 0000 A000 020008
2018-10-20 03:41:33,0.00,0.00,0.00,21.52,26.02,27.94,-0.03,0.69,1014.77,2030.91,3607.07,3090.24,3553.03,0.00,0.00,0.00,0000 0000 0000 A000 020008
2018-10-20 03:46:34,0.00,0.00,0.00,21.48,26.02,27.92,-0.04,0.70,1014.71,2030.91,3607.08,3090.28,3553.03,0.00,0.00,0.00,0000 0000 0000 A000 020008
2018-10-20 03:51:35,0.00,0.00,0.00,21.46,26.00,27.94,-0.03,0.72,1014.90,2030.96,3607.25,3090.67,3553.13,0.00,0.00,0.00,0000 0000 0000 A000 020008
2018-10-20 03:56:37,0.00,0.00,0.00,21.44,26.00,27.95,-0.03,0.78,1015.00,2030.97,3607.67,3090.89,3553.40,0.00,0.00,0.00,0000 0000 0000 A000 020008
2018-10-20 04:01:38,0.00,0.00,0.00,21.44,26.00,27.95,-0.03,0.76,1014.95,2030.98,3607.56,3090.90,3553.29,0.00,0.00,0.00,0000 0000 0000 A000 020008
2018-10-20 04:06:39,0.00,0.00,0.00,21.43,25.99,27.93,-0.03,0.74,1014.91,2030.96,3607.72,3090.94,3553.64,0.00,0.00,0.00,0000 0000 0000 A000 020008
2018-10-20 04:11:40,0.00,0.00,0.00,21.42,25.97,27.91,-0.03,0.72,1014.99,2030.98,3607.77,3090.96,3553.59,0.00,0.00,0.00,0000 0000 0000 A000 020008
2018-10-20 04:16:41,0.00,0.00,0.00,21.40,25.97,27.94,-0.03,0.74,1015.07,2030.97,3607.65,3090.93,3553.39,0.00,0.00,0.00,0000 0000 0000 A000 020008
2018-10-20 04:21:43,0.00,0.00,0.00,21.40,25.96,27.91,-0.03,0.75,1015.03,2030.98,3607.84,3090.97,3553.75,0.00,0.00,0.00,0000 0000 0000 A000 020008
2018-10-20 04:26:44,0.00,0.00,0.00,21.38,25.95,27.90,-0.02,0.72,1015.09,2030.97,3607.81,3090.97,3553.76,0.00,0.00,0.00,0000 0000 0000 A000 020008
2018-10-20 04:31:45,0.00,0.00,0.00,21.38,25.95,27.81,-0.03,0.71,1015.10,2030.97,3607.89,3090.98,3553.85,0.00,0.00,0.00,0000 0000 0000 A000 020008
2018-10-20 04:36:46,0.00,0.00,0.00,21.37,25.93,27.85,-0.02,0.76,1015.13,2030.99,3607.98,3090.99,3553.98,0.00,0.00,0.00,0000 0000 0000 A000 020008
2018-10-20 04:41:48,0.00,0.00,0.00,21.37,25.92,27.81,-0.03,0.72,1015.15,2030.99,3607.99,3090.99,3553.99,0.00,0.00,0.00,0000 0000 0000 A000 020008
2018-10-20 04:46:49,0.00,0.00,0.00,21.37,25.92,27.86,-0.03,0.65,1015.16,2030.99,3607.99,3090.99,3553.99,0.00,0.00,0.00,0000 0000 0000 A000 020008
2018-10-20 04:51:50,0.00,0.00,0.00,21.37,25.90,27.79,-0.03,0.57,1015.18,2030.99,3607.99,3090.99,3553.99,0.00,0.00,0.00,0000 0000 0000 A000 020008
2018-10-20 04:56:51,0.00,0.00,0.00,21.36,25.90,27.77,-0.02,0.60,1015.18,2030.99,3607.99,3090.99,3553.99,0.00,0.00,0.00,0000 0000 0000 A000 020008
2018-10-20 05:01:53,0.00,0.00,0.00,21.35,25.89,27.77,-0.02,0.63,1015.16,2030.99,3607.99,3091.00,3553.99,0.00,0.00,0.00,0000 0000 0000 A000 020008
2018-10-20 05:06:54,0.00,0.00,0.00,21.34,25.87,27.72,-0.03,0.65,1015.20,2030.99,3608.00,3091.02,3553.99,0.00,0.00,0.00,0000 0000 0000 A000 020008
2018-10-20 05:11:55,0.00,0.00,0.00,21.32,25.87,27.78,-0.02,0.63,1015.30,2030.99,3608.00,3091.03,3554.02,0.00,0.00,0.00,0000 0000 0000 A000 020008
2018-10-20 05:16:56,0.00,0.00,0.00,21.32,25.86,27.77,-0.03,0.68,1015.30,2031.00,3608.03,3091.07,3554.05,0.00,0.00,0.00,0000 0000 0000 A000 020008
2018-10-20 05:21:57,0.00,0.00,0.00,21.31,25.85,27.78,-0.03,0.69,1015.22,2031.01,3608.11,3091.20,3554.17,0.00,0.00,0.00,0000 0000 0000 A000 020008
2018-10-20 05:26:58,0.00,0.00,0.00,21.29,25.85,27.81,-0.03,0.71,1015.20,2031.01,3608.11,3091.33,3554.27,0.00,0.00,0.00,0000 0000 0000 A000 020008
2018-10-20 05:32:00,0.00,0.00,0.00,21.27,25.83,27.80,-0.03,0.70,1015.19,2031.04,3608.36,3091.69,3554.53,0.00,0.00,0.00,0000 0000 0000 A000 020008
2018-10-20 05:37:01,0.00,0.00,0.00,21.25,25.82,27.70,-0.03,0.69,1015.21,2031.10,3608.82,3091.94,3554.93,0.00,0.00,0.00,0000 0000 0000 A000 020008
2018-10-20 05:42:02,0.00,0.00,0.00,21.23,25.82,27.69,-0.02,0.68,1015.23,2031.13,3608.91,3091.98,3554.95,0.00,0.00,0.00,0000 0000 0000 A000 020008
2018-10-20 05:47:04,0.00,0.00,0.00,21.21,25.80,27.74,-0.03,0.67,1015.19,2031.28,3608.98,3091.99,3554.99,0.00,0.00,0.00,0000 0000 0000 A000 020008
2018-10-20 05:52:05,0.00,0.00,0.00,21.19,25.80,27.75,-0.02,0.69,1015.18,2031.56,3608.99,3091.99,3554.99,0.00,0.00,0.00,0000 0000 0000 A000 020008
2018-10-20 05:57:07,0.00,0.00,0.00,21.19,25.78,27.71,-0.03,0.69,1015.18,2031.81,3608.99,3091.99,3554.99,0.00,0.00,0.00,0000 0000 0000 A000 020008
2018-10-20 06:02:08,0.00,0.00,0.00,21.17,25.77,27.64,-0.02,0.63,1015.20,2031.94,3608.99,3092.00,3555.00,0.00,0.00,0.00,0000 0000 0000 A000 020008
2018-10-20 06:07:09,0.00,0.00,0.00,21.14,25.76,27.68,-0.03,0.66,1015.17,2031.95,3608.99,3092.01,3555.01,0.00,0.00,0.00,0000 0000 0000 A000 020008
2018-10-20 06:12:10,0.00,0.00,0.00,21.13,25.75,27.59,-0.03,0.69,1015.16,2031.96,3609.00,3092.02,3555.04,0.00,0.00,0.00,0000 0000 0000 A000 020008
2018-10-20 06:17:12,0.00,0.00,0.00,21.12,25.74,27.64,-0.03,0.74,1015.16,2031.96,3609.02,3092.02,3555.09,0.00,0.00,0.00,0000 0000 0000 A000 020008
2018-10-20 06:22:13,0.00,0.00,0.00,21.09,25.72,27.59,-0.04,0.73,1015.16,2031.98,3609.06,3092.09,3555.26,0.00,0.00,0.00,0000 0000 0000 A000 020008
2018-10-20 06:27:15,0.00,0.00,0.00,21.07,25.71,27.61,-0.03,0.72,1015.23,2031.98,3609.07,3092.12,3555.39,0.00,0.00,0.00,0000 0000 0000 A000 020008
2018-10-20 06:32:16,0.00,0.00,0.00,21.05,25.70,27.53,-0.01,0.78,1015.24,2031.97,3609.15,3092.27,3555.60,0.00,0.00,0.00,0000 0000 0000 A000 020008
2018-10-20 06:37:17,0.00,0.00,0.00,21.03,25.69,27.50,-0.01,0.80,1015.20,2031.99,3609.42,3092.62,3555.95,0.00,0.00,0.00,0000 0000 0000 A000 020008
2018-10-20 06:42:18,0.00,0.00,0.00,21.00,25.67,27.56,-0.03,0.79,1015.32,2031.99,3609.54,3092.71,3555.94,0.00,0.00,0.00,0000 0000 0000 A000 020008
2018-10-20 06:47:19,0.00,0.00,0.00,20.98,25.65,27.48,-0.03,0.75,1015.52,2031.99,3609.90,3092.96,3555.99,0.00,0.00,0.00,0000 0000 0000 A000 020008
2018-10-20 06:52:20,0.00,0.00,0.00,20.96,25.64,27.47,-0.02,0.72,1015.64,2031.99,3609.98,3092.97,3555.99,0.00,0.00,0.00,0000 0000 0000 A000 020008
2018-10-20 06:57:21,0.00,0.00,0.00,20.93,25.62,27.41,-0.02,0.69,1015.64,2031.99,3609.99,3092.99,3556.00,0.00,0.00,0.00,0000 0000 0000 A000 020008
2018-10-20 07:02:22,0.00,0.00,0.00,20.91,25.61,27.40,-0.02,0.57,1015.64,2031.99,3609.99,3092.99,3556.02,0.00,0.00,0.00,0000 0000 0000 A000 020008
2018-10-20 07:07:23,0.00,0.00,0.00,20.90,25.60,27.32,-0.03,0.50,1015.65,2032.01,3610.01,3093.00,3556.09,0.00,0.00,0.00,0000 0000 0000 A000 020008
2018-10-20 07:12:25,0.00,0.00,0.00,20.89,25.57,27.34,-0.03,0.50,1015.69,2032.01,3610.01,3093.05,3556.34,0.00,0.00,0.00,0000 0000 0000 A000 020008
2018-10-20 07:17:26,0.00,0.00,0.00,20.87,25.56,27.32,-0.03,0.48,1015.77,2032.03,3610.04,3093.07,3556.68,0.00,0.00,0.00,0000 0000 0000 A000 020008
2018-10-20 07:22:27,0.00,0.00,0.00,20.86,25.55,27.29,-0.02,0.53,1015.92,2032.07,3610.18,3093.17,3556.89,0.00,0.00,0.00,0000 0000 0000 A000 020008
2018-10-20 07:27:28,0.00,0.00,0.00,20.87,25.53,27.29,-0.02,0.60,1015.76,2032.12,3610.42,3093.52,3556.98,0.00,0.00,0.00,0000 0000 0000 A000 020008
2018-10-20 07:32:30,0.00,0.00,0.00,20.88,25.52,27.29,-0.03,0.61,1015.76,2032.13,3610.63,3093.64,3556.98,0.00,0.00,0.00,0000 0000 0000 A000 020008
2018-10-20 07:37:31,0.00,0.00,0.00,20.89,25.51,27.30,-0.03,0.68,1015.88,2032.33,3610.80,3093.88,3556.99,0.00,0.00,0.00,0000 0000 0000 A000 020008
2018-10-20 07:42:32,0.00,0.00,0.00,20.89,25.50,27.34,-0.03,0.68,1015.97,2032.53,3610.94,3093.95,3556.99,0.00,0.00,0.00,0000 0000 0000 A000 020008
2018-10-20 07:47:33,0.00,0.00,0.00,20.90,25.50,27.41,-0.04,0.69,1015.96,2032.74,3610.96,3093.97,3556.99,0.00,0.00,0.00,0000 0000 0000 A000 020008
2018-10-20 07:52:35,0.00,0.00,0.00,20.90,25.48,27.35,-0.03,0.67,1016.02,2032.77,3610.96,3093.98,3556.99,0.00,0.00,0.00,0000 0000 0000 A000 020008
2018-10-20 07:57:36,0.00,0.00,0.00,20.90,25.47,27.42,-0.03,0.68,1016.07,2032.91,3610.99,3093.99,3557.01,0.00,0.00,0.00,0000 0000 0000 A000 020008
2018-10-20 08:02:37,0.00,0.00,0.00,20.91,25.47,27.38,-0.04,0.64,1016.12,2032.97,3610.99,3093.99,3557.10,0.00,0.00,0.00,0000 0000 0000 A000 020008
2018-10-20 08:07:38,0.00,0.00,0.00,20.89,25.45,27.40,-0.03,0.60,1016.12,2032.98,3611.00,3094.00,3557.24,0.00,0.00,0.00,0000 0000 0000 A000 020008
2018-10-20 08:12:39,0.00,0.00,0.00,20.89,25.45,27.39,-0.03,0.68,1016.12,2032.97,3611.00,3094.01,3557.38,0.00,0.00,0.00,0000 0000 0000 A000 020008
2018-10-20 08:17:41,0.00,0.00,0.00,20.88,25.44,27.35,-0.03,0.67,1016.13,2032.98,3611.01,3094.01,3557.60,0.00,0.00,0.00,0000 0000 0000 A000 020008
2018-10-20 08:22:42,0.00,0.00,0.00,20.88,25.42,27.35,-0.03,0.65,1016.12,2032.99,3611.04,3094.03,3557.79,0.00,0.00,0.00,0000 0000 0000 A000 020008
2018-10-20 08:27:43,0.00,0.00,0.00,20.87,25.42,27.34,-0.03,0.55,1016.13,2032.99,3611.17,3094.11,3557.97,0.00,0.00,0.00,0000 0000 0000 A000 020008
2018-10-20 08:32:44,0.00,0.00,0.00,20.87,25.41,27.30,-0.03,0.53,1016.13,2032.99,3611.41,3094.35,3557.98,0.00,0.00,0.00,0000 0000 0000 A000 020008
2018-10-20 08:37:45,0.00,0.00,0.00,20.86,25.40,27.28,-0.03,0.50,1016.13,2032.99,3611.48,3094.39,3557.99,0.00,0.00,0.00,0000 0000 0000 A000 020008
2018-10-20 08:42:46,0.00,0.00,0.00,20.84,25.40,27.26,-0.03,0.51,1016.13,2032.99,3611.64,3094.56,3557.99,0.00,0.00,0.00,0000 0000 0000 A000 020008
2018-10-20 08:47:48,0.00,0.00,0.00,20.84,25.39,27.25,-0.03,0.56,1016.13,2032.99,3611.58,3094.53,3557.99,0.00,0.00,0.00,0000 0000 0000 A000 020008
2018-10-20 08:52:49,0.00,0.00,0.00,20.82,25.37,27.23,-0.04,0.63,1016.12,2032.99,3611.78,3094.70,3557.99,0.00,0.00,0.00,0000 0000 0000 A000 020008
2018-10-20 08:57:50,0.00,0.00,0.00,20.84,25.37,27.25,-0.05,0.66,1016.11,2032.99,3611.92,3094.92,3557.99,0.00,0.00,0.00,0000 0000 0000 A000 020008
2018-10-20 09:02:52,0.00,0.00,0.00,20.84,25.37,27.27,-0.04,0.72,1016.11,2032.99,3611.96,3094.96,3558.00,0.00,0.00,0.00,0000 0000 0000 A000 020008
2018-10-20 09:07:53,0.00,0.00,0.00,20.84,25.37,27.27,-0.04,0.80,1015.99,2032.99,3611.98,3094.99,3558.01,0.00,0.00,0.00,0000 0000 0000 A000 020008
2018-10-20 09:12:54,0.00,0.00,0.00,20.86,25.37,27.35,-0.04,0.86,1015.88,2033.00,3611.98,3094.98,3558.01,0.00,0.00,0.00,0000 0000 0000 A000 020008
2018-10-20 09:17:55,0.00,0.00,0.00,20.87,25.35,27.26,-0.04,0.81,1015.96,2033.01,3611.99,3094.97,3558.02,0.00,0.00,0.00,0000 0000 0000 A000 020008
2018-10-20 09:22:57,0.00,0.00,0.00,20.85,25.35,27.27,-0.03,0.82,1015.78,2033.02,3611.99,3094.98,3558.02,0.00,0.00,0.00,0000 0000 0000 A000 020008
2018-10-20 09:27:58,0.00,0.00,0.00,20.84,25.35,27.29,-0.03,0.82,1015.79,2033.01,3611.99,3094.98,3558.01,0.00,0.00,0.00,0000 0000 0000 A000 020008
2018-10-20 09:33:00,0.00,0.00,0.00,20.83,25.35,27.24,-0.03,0.74,1015.96,2033.02,3611.99,3094.99,3558.06,0.00,0.00,0.00,0000 0000 0000 A000 020008
2018-10-20 09:38:01,0.00,0.00,0.00,20.84,25.34,27.30,-0.04,0.75,1016.05,2033.03,3611.99,3094.99,3558.16,0.00,0.00,0.00,0000 0000 0000 A000 020008
2018-10-20 09:43:02,0.00,0.00,0.00,20.83,25.33,27.27,-0.03,0.72,1015.95,2033.05,3611.99,3094.99,3558.20,0.00,0.00,0.00,0000 0000 0000 A000 020008
2018-10-20 09:48:03,0.00,0.00,0.00,20.82,25.32,27.24,-0.03,0.73,1015.91,2033.03,3611.99,3094.99,3558.20,0.00,0.00,0.00,0000 0000 0000 A000 020008
2018-10-20 09:53:04,0.00,0.00,0.00,20.80,25.32,27.23,-0.02,0.75,1016.07,2033.04,3611.99,3094.99,3558.22,0.00,0.00,0.00,0000 0000 0000 A000 020008
2018-10-20 09:58:05,0.00,0.00,0.00,20.80,25.32,27.27,-0.03,0.77,1016.11,2033.05,3611.99,3094.99,3558.27,0.00,0.00,0.00,0000 0000 0000 A000 020008
2018-10-20 10:03:06,0.00,0.00,0.00,20.79,25.31,27.33,-0.04,0.74,1016.12,2033.07,3611.99,3094.99,3558.49,0.00,0.00,0.00,0000 0000 0000 A000 020008
2018-10-20 10:08:08,0.00,0.00,0.00,20.77,25.30,27.26,-0.03,0.72,1016.13,2033.10,3612.00,3094.99,3558.68,0.00,0.00,0.00,0000 0000 0000 A000 020008
2018-10-20 10:13:09,0.00,0.00,0.00,20.75,25.30,27.29,-0.04,0.69,1016.13,2033.13,3612.01,3095.00,3558.91,0.00,0.00,0.00,0000 0000 0000 A000 020008
2018-10-20 10:18:10,0.00,0.00,0.00,20.74,25.28,27.24,-0.04,0.68,1016.13,2033.26,3612.04,3095.01,3558.95,0.00,0.00,0.00,0000 0000 0000 A000 020008
2018-10-20 10:23:12,0.00,0.00,0.00,20.73,25.27,27.20,-0.04,0.72,1016.13,2033.45,3612.11,3095.08,3558.98,0.00,0.00,0.00,0000 0000 0000 A000 020008
2018-10-20 10:28:13,0.00,0.00,0.00,20.73,25.27,27.24,-0.04,0.65,1016.13,2033.72,3612.42,3095.23,3558.99,0.00,0.00,0.00,0000 0000 0000 A000 020008
2018-10-20 10:33:14,0.00,0.00,0.00,20.71,25.26,27.32,-0.04,0.68,1016.14,2033.84,3612.66,3095.45,3558.99,0.00,0.00,0.00,0000 0000 0000 A000 020008
2018-10-20 10:38:16,0.00,0.00,0.00,20.70,25.25,27.33,-0.04,0.73,1016.13,2033.92,3612.89,3095.79,3558.99,0.00,0.00,0.00,0000 0000 0000 A000 020008
2018-10-20 10:43:17,0.00,0.00,0.00,20.69,25.25,27.27,-0.04,0.73,1016.13,2033.97,3612.95,3095.92,3559.00,0.00,0.00,0.00,0000 0000 0000 A000 020008
2018-10-20 10:48:18,0.00,0.00,0.00,20.68,25.23,27.17,-0.04,0.73,1016.13,2033.97,3612.97,3095.92,3559.01,0.00,0.00,0.00,0000 0000 0000 A000 020008
2018-10-20 10:53:19,0.00,0.00,0.00,20.67,25.22,27.20,-0.04,0.74,1016.13,2033.97,3612.97,3095.95,3559.02,0.00,0.00,0.00,0000 0000 0000 A000 020008
2018-10-20 10:58:20,0.00,0.00,0.00,20.66,25.22,27.19,-0.04,0.73,1016.13,2033.97,3612.99,3095.98,3559.03,0.00,0.00,0.00,0000 0000 0000 A000 020008
2018-10-20 11:03:22,0.00,0.00,0.00,20.65,25.21,27.14,-0.04,0.75,1016.13,2033.99,3612.99,3095.99,3559.10,0.00,0.00,0.00,0000 0000 0000 A000 020008
2018-10-20 11:08:23,0.00,0.00,0.00,20.64,25.20,27.11,-0.04,0.78,1016.13,2033.99,3612.99,3095.99,3559.36,0.00,0.00,0.00,0000 0000 0000 A000 020008
2018-10-20 11:13:25,0.00,0.00,0.00,20.64,25.20,27.10,-0.04,0.74,1016.13,2033.99,3612.99,3095.99,3559.75,0.00,0.00,0.00,0000 0000 0000 A000 020008
2018-10-20 11:18:25,0.00,0.00,0.00,20.63,25.20,27.20,-0.04,0.76,1016.13,2033.99,3612.99,3095.99,3559.90,0.00,0.00,0.00,0000 0000 0000 A000 020008
2018-10-20 11:23:26,0.00,0.00,0.00,20.61,25.17,27.13,-0.04,0.65,1016.14,2033.99,3613.01,3095.99,3559.97,0.00,0.00,0.00,0000 0000 0000 A000 020008
2018-10-20 11:28:28,0.00,0.00,0.00,20.59,25.17,27.06,-0.03,0.60,1016.15,2033.99,3613.03,3096.00,3559.98,0.00,0.00,0.00,0000 0000 0000 A000 020008
2018-10-20 11:33:29,0.00,0.00,0.00,20.59,25.17,27.03,-0.04,0.63,1016.16,2033.99,3613.03,3096.01,3559.99,0.00,0.00,0.00,0000 0000 0000 A000 020008
2018-10-20 11:38:29,0.00,0.00,0.00,20.59,25.17,26.99,-0.04,0.65,1016.22,2033.99,3613.24,3096.05,3559.99,0.00,0.00,0.00,0000 0000 0000 A000 020008
2018-10-20 11:43:30,0.00,0.00,0.00,20.59,25.15,27.01,-0.04,0.66,1016.30,2034.00,3613.45,3096.10,3559.99,0.00,0.00,0.00,0000 0000 0000 A000 020008
2018-10-20 11:48:31,0.00,0.00,0.00,20.63,25.15,27.07,-0.03,0.66,1016.25,2034.00,3613.41,3096.10,3559.99,0.00,0.00,0.00,0000 0000 0000 A000 020008
2018-10-20 11:53:33,0.00,0.00,0.00,20.64,25.15,27.09,-0.04,0.68,1016.19,2034.00,3613.49,3096.12,3559.99,0.00,0.00,0.00,0000 0000 0000 A000 020008
2018-10-20 11:58:34,0.00,0.00,0.00,20.67,25.15,27.09,-0.03,0.74,1016.15,2034.00,3613.57,3096.17,3559.99,0.00,0.00,0.00,0000 0000 0000 A000 020008
2018-10-20 12:03:35,0.00,0.00,0.00,20.69,25.15,27.13,-0.03,0.73,1016.13,2034.00,3613.60,3096.23,3559.99,0.00,0.00,0.00,0000 0000 0000 A000 020008
2018-10-20 12:08:37,0.00,0.00,0.00,20.69,25.15,27.15,-0.03,0.76,1016.13,2034.00,3613.61,3096.20,3560.00,0.00,0.00,0.00,0000 0000 0000 A000 020008
2018-10-20 12:13:38,0.00,0.00,0.00,20.70,25.15,27.17,-0.03,0.77,1016.12,2034.00,3613.54,3096.15,3560.00,0.00,0.00,0.00,0000 0000 0000 A000 020008
2018-10-20 12:18:39,0.00,0.00,0.00,20.71,25.15,27.18,-0.03,0.78,1016.07,2034.00,3613.64,3096.22,3560.00,0.00,0.00,0.00,0000 0000 0000 A000 020008
2018-10-20 12:23:40,0.00,0.00,0.00,20.70,25.15,27.19,-0.03,0.74,1016.06,2034.00,3613.54,3096.17,3560.00,0.00,0.00,0.00,0000 0000 0000 A000 020008
2018-10-20 12:28:41,0.00,0.00,0.00,20.69,25.15,27.19,-0.04,0.74,1015.99,2034.00,3613.39,3096.10,3560.00,0.00,0.00,0.00,0000 0000 0000 A000 020008
2018-10-20 12:33:42,0.00,0.00,0.00,20.68,25.15,27.23,-0.04,0.70,1015.80,2034.00,3613.34,3096.10,3560.00,0.00,0.00,0.00,0000 0000 0000 A000 020008
2018-10-20 12:38:44,0.00,0.00,0.00,20.69,25.15,27.17,-0.04,0.68,1015.71,2034.00,3613.19,3096.04,3560.00,0.00,0.00,0.00,0000 0000 0000 A000 020008
2018-10-20 12:43:45,0.00,0.00,0.00,20.68,25.14,27.22,-0.04,0.70,1015.67,2034.00,3613.17,3096.07,3560.00,0.00,0.00,0.00,0000 0000 0000 A000 020008
2018-10-20 12:48:46,0.00,0.00,0.00,20.67,25.12,27.17,-0.04,0.76,1015.65,2034.00,3613.29,3096.07,3560.00,0.00,0.00,0.00,0000 0000 0000 A000 020008
2018-10-20 12:53:47,0.00,0.00,0.00,20.64,25.12,27.16,-0.03,0.73,1015.64,2034.00,3613.41,3096.15,3560.00,0.00,0.00,0.00,0000 0000 0000 A000 020008
2018-10-20 12:58:48,0.00,0.00,0.00,20.64,25.12,27.15,-0.04,0.78,1015.64,2034.01,3613.69,3096.36,3560.00,0.00,0.00,0.00,0000 0000 0000 A000 020008
2018-10-20 13:03:49,0.00,0.00,0.00,20.62,25.12,27.19,-0.04,0.88,1015.64,2034.00,3613.77,3096.34,3560.00,0.00,0.00,0.00,0000 0000 0000 A000 020008
2018-10-20 13:08:50,0.00,0.00,0.00,20.62,25.12,27.15,-0.04,0.78,1015.64,2034.00,3613.78,3096.48,3560.01,0.00,0.00,0.00,0000 0000 0000 A000 020008
2018-10-20 13:13:51,0.00,0.00,0.00,20.59,25.10,27.17,-0.05,0.83,1015.63,2034.01,3613.95,3096.84,3560.02,0.00,0.00,0.00,0000 0000 0000 A000 020008
2018-10-20 13:18:52,0.00,0.00,0.00,20.57,25.10,27.09,-0.05,0.82,1015.64,2034.01,3613.97,3096.90,3560.01,0.00,0.00,0.00,0000 0000 0000 A000 020008
2018-10-20 13:23:54,0.00,0.00,0.00,20.55,25.10,27.06,-0.04,0.80,1015.63,2034.02,3613.97,3096.91,3560.04,0.00,0.00,0.00,0000 0000 0000 A000 020008